Flight Track Log - Related Links

Times and Time Zones

All times are in EDT time to prevent confusion due to time zone crossing. See the SWA595 flight status page for this flight to view local times or setup timezone preferences in your user account.

Time Position Orientation Groundspeed Altitude Reporting Facility
EDT Latitude Longitude Course Direction KTS MPH feet Rate Location/Type
Fri 12:13:23 PM 41.8000 -87.6500 90° East 211 243 3,900  Level Chicago TRACON
Fri 12:14:43 PM 41.7981 -87.5350 91° East 252 290 7,100 2,620 Climbing Chicago Center
Fri 12:15:45 PM 41.7903 -87.4278 96° East 288 331 10,100 3,097 Climbing Chicago Center
Fri 12:16:47 PM 41.7806 -87.3008 96° East 316 364 13,500 2,758 Climbing Chicago Center
Fri 12:17:49 PM 41.7714 -87.1722 95° East 348 400 15,800 2,032 Climbing Chicago Center
Fri 12:18:51 PM 41.7622 -87.0214 95° East 406 467 17,700 1,810 Climbing Chicago Center
Fri 12:19:55 PM 41.7631 -86.8544 90° East 443 510 19,600 2,544 Climbing Chicago Center
Fri 12:20:56 PM 41.7650 -86.6617 89° East 468 539 23,000 3,268 Climbing Chicago Center
Fri 12:21:58 PM 41.7669 -86.4928 89° East 460 529 26,300 2,710 Climbing Chicago Center
Fri 12:23:00 PM 41.7675 -86.3239 90° East 454 522 28,600 2,274 Climbing Chicago Center
Fri 12:24:02 PM 41.7583 -86.1528 94° East 458 527 31,000 2,177 Climbing Chicago Center
Fri 12:25:04 PM 41.7478 -85.9836 95° East 458 527 33,100 1,452 Climbing Chicago Center
Fri 12:26:06 PM 41.7364 -85.8108 95° East 463 533 34,000 1,258 Climbing Chicago Center
Fri 12:27:08 PM 41.7236 -85.5917 94° East 489 563 35,700 1,440 Climbing Chicago Center
Fri 12:28:11 PM 41.7100 -85.4250 96° East 490 564 37,000 1,392 Climbing Chicago Center
Fri 12:29:13 PM 41.6983 -85.2142 94° East 498 573 38,600 968 Climbing Chicago Center
Fri 12:30:15 PM 41.6853 -85.0347 96° East 490 564 39,000 194 Climbing Chicago Center
Fri 12:31:17 PM 41.6728 -84.8536 95° East 487 560 39,000  Level Chicago Center
Fri 12:32:08 PM 41.6614 -84.7108 96° East 487 560 39,000  Level Cleveland Center
Fri 12:33:10 PM 41.6519 -84.5314 94° East 487 560 39,000  Level Cleveland Center
Fri 12:34:12 PM 41.6253 -84.3558 101° East 487 560 39,000  Level Cleveland Center
Fri 12:35:14 PM 41.5539 -84.1933 120° Southeast 475 547 39,000  Level Cleveland Center
Fri 12:36:16 PM 41.4889 -84.0394 119° Southeast 476 548 39,000  Level Cleveland Center
Fri 12:37:18 PM 41.4092 -83.8558 120° Southeast 480 552 39,000  Level Cleveland Center
Fri 12:38:20 PM 41.3417 -83.7031 120° Southeast 480 552 39,000  Level Cleveland Center
Fri 12:39:23 PM 41.2747 -83.5503 120° Southeast 480 552 39,000  Level Cleveland Center
Fri 12:40:25 PM 41.2083 -83.3986 120° Southeast 480 552 39,000  Level Cleveland Center
Fri 12:41:27 PM 41.1403 -83.2453 120° Southeast 482 555 39,000  Level Cleveland Center
Fri 12:42:29 PM 41.0636 -83.0733 121° Southeast 481 554 39,000  Level Cleveland Center
Fri 12:43:31 PM 40.9947 -82.9172 120° Southeast 485 558 39,000  Level Cleveland Center
Fri 12:44:33 PM 40.9247 -82.7611 121° Southeast 486 559 39,000  Level Cleveland Center
Fri 12:45:35 PM 40.8428 -82.5794 121° Southeast 489 563 39,000  Level Cleveland Center
Fri 12:46:37 PM 40.7725 -82.4253 121° Southeast 489 563 39,000  Level Cleveland Center
Fri 12:47:27 PM 40.7144 -82.2964 121° Southeast 489 563 39,000  Level Cleveland Center
Fri 12:48:29 PM 40.6444 -82.1444 121° Southeast 488 562 39,000  Level Cleveland Center
Fri 12:49:31 PM 40.5744 -81.9928 121° Southeast 486 559 39,000  Level Cleveland Center
Fri 12:50:33 PM 40.5050 -81.8417 121° Southeast 485 558 39,000  Level Cleveland Center
Fri 12:51:35 PM 40.4347 -81.6903 121° Southeast 484 557 39,000  Level Cleveland Center
Fri 12:52:37 PM 40.3519 -81.5136 122° Southeast 483 556 39,000  Level Cleveland Center
Fri 12:53:40 PM 40.2892 -81.3814 122° Southeast 483 556 39,000  Level Cleveland Center
Fri 12:54:42 PM 40.2192 -81.2328 122° Southeast 483 556 39,000 -484 Level Cleveland Center
Fri 12:55:44 PM 40.1344 -81.0544 122° Southeast 483 556 38,000 -919 Descending Cleveland Center
Fri 12:56:46 PM 40.0622 -80.9022 122° Southeast 490 564 37,100 -581 Descending Cleveland Center
Fri 12:57:48 PM 39.9886 -80.7494 122° Southeast 498 573 36,800 -629 Descending Cleveland Center
Fri 12:58:50 PM 39.9153 -80.5961 122° Southeast 499 574 35,800 -1,065 Descending Cleveland Center
Fri 12:59:52 PM 39.8275 -80.4169 122° Southeast 495 570 34,600 -1,016 Descending Cleveland Center
Fri 01:00:54 PM 39.7550 -80.2678 122° Southeast 494 568 33,700 -768 Descending Cleveland Center
Fri 01:01:57 PM 39.6817 -80.1172 122° Southeast 494 568 33,000 -336 Descending Cleveland Center
Fri 01:02:59 PM 39.6094 -79.9658 122° Southeast 495 570 33,000 -1,113 Level Cleveland Center
Fri 01:04:01 PM 39.5481 -79.8094 117° Southeast 493 567 30,700 -2,516 Descending Cleveland Center
Fri 01:05:03 PM 39.5094 -79.6031 104° East 498 573 27,800 -1,790 Descending Cleveland Center
Fri 01:06:05 PM 39.4794 -79.4383 103° East 480 552 27,000 -871 Descending Cleveland Center
Fri 01:07:07 PM 39.4500 -79.2753 103° East 472 543 26,000 -1,597 Descending Cleveland Center
Fri 01:08:09 PM 39.4208 -79.1158 103° East 463 533 23,700 -2,226 Descending Cleveland Center
Fri 01:09:11 PM 39.3931 -78.9528 102° East 448 516 21,400 -2,160 Descending Cleveland Center
Fri 01:10:14 PM 39.3661 -78.8042 103° East 428 493 19,200 -2,268 Descending Cleveland Center
Fri 01:11:18 PM 39.3356 -78.6344 103° East 412 474 16,600 -2,256 Descending Washington Center
Fri 01:12:19 PM 39.3117 -78.5022 103° East 398 458 14,500 -2,016 Descending Washington Center
Fri 01:13:20 PM 39.2856 -78.3750 105° East 376 433 12,500 -1,714 Descending Washington Center
Fri 01:14:18 PM 39.2339 -78.2658 121° Southeast 353 406 11,100 -1,059 Descending Washington Center
Fri 01:15:19 PM 39.1839 -78.1703 124° Southeast 341 392 10,400 -545 Descending Washington Center
Fri 01:16:19 PM 39.1356 -78.0831 126° Southeast 320 368 10,000 -706 Descending Washington Center
Fri 01:17:18 PM 39.0875 -77.9931 125° Southeast 309 356 9,000 -1,059 Descending Washington Center
Fri 01:18:18 PM 39.0392 -77.9033 125° Southeast 309 356 7,900 -1,140 Descending Washington Center
Fri 01:19:19 PM 38.9950 -77.8136 122° Southeast 303 349 6,700 -934 Descending Washington Center
Fri 01:20:20 PM 38.9614 -77.7192 115° Southeast 303 349 6,000 -353 Descending Washington Center
Fri 01:21:18 PM 38.9400 -77.6253 106° East 283 326 6,000 -306 Level Washington Center
Fri 01:21:58 PM 38.9000 -77.6000 154° Southeast 248 285 5,500 -900 Descending Potomac TRACON
Fri 01:22:58 PM 38.8333 -77.5667 159° South 234 269 4,500 -1,150 Descending Potomac TRACON
Fri 01:23:58 PM 38.8000 -77.5167 131° Southeast 222 255 3,200 -1,190 Descending Potomac TRACON
Fri 01:25:04 PM 38.8500 -77.4667 38° Northeast 197 227 2,000 -952 Descending Potomac TRACON
Fri 01:26:04 PM 38.8833 -77.4667 360° North 144 166 1,200 -750 Descending Potomac TRACON
Fri 01:27:04 PM 38.9333 -77.4667 360° North 136 157 500 -700 Descending Potomac TRACON
Fri 01:29:00 PM 38.9333 -77.4500 165° South  Level FlightAware Approximate

Login

Don't have an account? Register now (free) for customized features, flight alerts, and more!